Location: Arcones
(41.1182°N, 3.7238°W)
Time: 19:35:14
(UTC+00:00)

Cosmos 1980 Rocket - Pass Details

Date: 11 December 2025
Orbit: 830 x 847 km, 71.0° (Epoch: 12 January)

Event Time Altitude Azimuth Distance (km) Brightness Sun altitude
Rises 18:06:56 0° 195° (SSW) 3,386 5.8 -14.7°
Reaches altitude 10° 18:09:23 10° 194° (SSW) 2,453 5.0 -15.1°
Maximum altitude 18:14:59 72° 111° (ESE) 883 2.1 -16.1°
Enters shadow 18:19:33 16° 29° (NNE) 2,068 3.8 -16.9°
